User: anonymous   Login
Location: Delta State University
(33.7460°N, 90.7320°W)
Time: 16:28:44
(UTC-06:00)
Language:

Iridium 13 - Orbit

View from above orbital plane
View from above orbital plane
View from above satellite
View from above satellite

Ground track
Ground track

The orbit data is extracted from the following two-line orbital elements,

1 24840U 97030E   14352.59673222  .00000097  00000-0  27663-4 0   599
2 24840 086.3948 011.2584 0002020 107.7009 005.3043 14.34216225916288
Epoch (UTC): 18 December 2014 14:19:17
Eccentricity: 0.0002020
inclination: 86.3948°
perigee height: 776 km
apogee height: 779 km
right ascension of ascending node: 11.2584°
argument of perigee: 107.7009°
revolutions per day: 14.34216225
mean anomaly at epoch: 5.3043°
orbit number at epoch: 91628

The dashed part of the orbit path shows where the satellite is in the earth's shadow,  

DLR